To NAV CANADA Home Page Login to a new session Search on AWWS site Feedback and Comments Disclaimer Vers la page française équivalente Tips FAQ What's new on the site To the Forecasts and Observations / NOTAM section To "File a Flight Plan" website Publications and other links Update of the User's profile FIC Telephone Numbers My Weather Data Folder Route Weather Data Regional Weather Data Local Weather Data To the Forecasts and Observations / NOTAM section
Request Generated 10/24/2016 at 05:12:25 UTC . Weather information available at that time is displayed.



LWIS CYFT 240500Z AUTO 07026G36KT 01/00 A2948=
LWIS CYFT 240400Z AUTO 08027G35KT 00/M00 A2950=
LWIS CYFT 240300Z AUTO 07018G28KT 00/M00 A2955=

CYFT - No TAF is issued for this station

Your time UTC time
Weather data provided by Environment Canada and NAV CANADA